ONEWEB-0124

Last updated on Mon Jan 18 2021 00:02:03 GMT+0000 (Coordinated Universal Time)

1 47270U 20100N 21017.58334491 -.01482380 00000-0 -12826+0 0 9997 2 47270 87.4231 29.1434 0010064 142.0416 318.4798 15.00733352 1773

Satellite not in orbit